Date String (YYYY-MM-DD hh:mm:ss) UTC,Instrument flags,absolute air pressure of the measurement (hPa),sample flow rate (lpm),inlet stack bypass flow (lpm),air temperature of the measurement (°C),ambient temperature measured by the external sensor (°C),aerosol sample conditioner tube jacket temperature (°C),OPC LED temperature (°C),internal box temperature (°C),relative humidity of the measurement (%),span deviation,mass concentration of particles derived from Lorenz-Mie calculation of OPC scattering (μg/m³),mass concentration of particles derived from Lorenz-Mie calculation of OPC scattering (μg/m³),mass concentration of particles derived from Lorenz-Mie calculation of OPC scattering (μg/m³)
DateTimeUTC,F1_M11,P_M11,Q1_M11,Q2_M11,T1_M11,T2_M11,T3_M11,T4_M11,T5_M11,U1_M11,ZSPAN_M11,X2_M11,X0_M11,X1_M11
2023-12-02 19:00:00,SystemResetWarning,0822.8,5.00,000.00,018.7,017.8,000.0,027.2,020.0,9.1,0000.0,0000.50,0001.89,0000.37
2023-12-02 19:01:00,SystemResetWarning,0822.9,4.99,000.00,018.7,017.8,000.0,027.2,020.0,9.5,0000.0,0000.48,0001.48,0000.35
2023-12-02 19:02:00,SystemResetWarning,0822.5,5.00,000.00,018.7,017.8,000.0,027.2,020.0,9.7,0000.0,0000.46,0001.62,0000.34
2023-12-02 19:03:00,SystemResetWarning,0822.6,4.99,000.00,018.7,017.8,000.0,027.2,020.0,8.8,0000.0,0000.46,0002.29,0000.33
2023-12-02 19:04:00,SystemResetWarning,0822.7,5.00,000.00,018.7,017.8,000.0,027.2,020.0,8.3,0000.0,0000.46,0002.26,0000.33
2023-12-02 19:05:00,SystemResetWarning,0822.8,5.01,000.00,018.7,017.8,000.0,027.2,020.0,8.2,0000.0,0000.48,0002.23,0000.33
2023-12-02 19:06:00,SystemResetWarning,0822.6,5.00,000.00,018.7,017.8,000.0,027.2,020.0,8.9,0000.0,0000.50,0002.25,0000.33
2023-12-02 19:07:00,SystemResetWarning,0822.4,5.00,000.00,018.7,017.8,000.0,027.2,020.0,8.5,0000.0,0000.50,0002.27,0000.33
2023-12-02 19:08:00,SystemResetWarning,0822.3,5.00,000.00,018.7,017.8,000.0,027.2,020.0,8.2,0000.0,0000.51,0002.31,0000.33
2023-12-02 19:09:00,SystemResetWarning,0822.4,5.00,000.00,018.7,017.8,000.0,027.2,020.0,8.1,0000.0,0000.52,0002.10,0000.33
2023-12-02 19:10:00,SystemResetWarning,0822.4,5.00,000.00,018.7,017.8,000.0,027.2,020.0,8.4,0000.0,0000.50,0001.97,0000.34
2023-12-02 19:11:00,SystemResetWarning,0822.6,5.00,000.00,018.7,017.8,000.0,027.2,020.0,8.7,0000.0,0000.51,0002.03,0000.34
2023-12-02 19:12:00,SystemResetWarning,0822.8,5.00,000.00,018.7,017.8,000.0,027.2,020.0,8.7,0000.0,0000.53,0002.05,0000.35
2023-12-02 19:13:00,SystemResetWarning,0823.0,5.00,000.00,018.7,017.8,000.0,027.2,020.0,9.1,0000.0,0000.53,0001.93,0000.35
2023-12-02 19:14:00,SystemResetWarning,0823.1,5.00,000.00,018.7,017.8,000.0,027.2,020.0,8.6,0000.0,0000.53,0001.01,0000.35
2023-12-02 19:15:00,SystemResetWarning,0822.8,5.00,000.00,018.7,017.8,000.0,027.2,020.0,8.4,0000.0,0000.52,0001.52,0000.35
2023-12-02 19:16:00,SystemResetWarning,0822.4,5.01,000.00,018.7,017.9,000.0,027.2,020.0,7.9,0000.0,0000.54,0002.36,0000.35
2023-12-02 19:17:00,SystemResetWarning,0822.6,5.00,000.00,018.7,017.9,000.0,027.2,020.0,7.9,0000.0,0000.50,0002.31,0000.35
2023-12-02 19:18:00,SystemResetWarning,0822.7,4.99,000.00,018.8,017.9,000.0,027.2,020.0,8.5,0000.0,0000.50,0002.29,0000.35
2023-12-02 19:19:00,SystemResetWarning,0822.4,4.99,000.00,018.8,017.9,000.0,027.2,020.0,8.8,0000.0,0000.49,0002.24,0000.36
2023-12-02 19:20:00,SystemResetWarning,0822.4,4.99,000.00,018.8,017.9,000.0,027.2,020.0,8.6,0000.0,0000.48,0002.24,0000.36
2023-12-02 19:21:00,SystemResetWarning,0822.4,5.00,000.00,018.8,017.9,000.0,027.2,020.0,8.0,0000.0,0000.47,0002.30,0000.35
2023-12-02 19:22:00,SystemResetWarning,0822.4,5.00,000.00,018.8,017.9,000.0,027.2,020.0,8.1,0000.0,0000.47,0002.31,0000.35
2023-12-02 19:23:00,SystemResetWarning,0822.4,5.01,000.00,018.8,017.9,000.0,027.2,020.0,8.5,0000.0,0000.46,0002.28,0000.34
2023-12-02 19:24:00,SystemResetWarning,0822.4,5.00,000.00,018.8,017.9,000.0,027.2,020.0,8.6,0000.0,0000.46,0002.29,0000.34
2023-12-02 19:25:00,SystemResetWarning,0822.4,5.00,000.00,018.8,017.9,000.0,027.2,020.0,8.8,0000.0,0000.46,0002.26,0000.35
2023-12-02 19:26:00,SystemResetWarning,0822.4,5.01,000.00,018.8,017.9,000.0,027.2,020.0,9.1,0000.0,0000.46,0001.91,0000.35
2023-12-02 19:27:00,SystemResetWarning,0822.4,5.00,000.00,018.8,018.0,000.0,027.2,020.0,9.1,0000.0,0000.44,0000.81,0000.36
2023-12-02 19:28:00,SystemResetWarning,0822.4,5.00,000.00,018.8,018.0,000.0,027.2,020.0,9.0,0000.0,0000.42,0000.77,0000.36
2023-12-02 19:29:00,SystemResetWarning,0822.4,5.00,000.00,018.8,018.0,000.0,027.2,020.0,8.9,0000.0,0000.43,0000.81,0000.35
2023-12-02 19:30:00,SystemResetWarning,0822.4,5.00,000.00,018.8,017.9,000.0,027.2,020.0,8.0,0000.0,0000.42,0000.80,0000.35
2023-12-02 19:31:00,SystemResetWarning,0822.6,5.00,000.00,018.8,017.9,000.0,027.2,020.0,8.1,0000.0,0000.45,0000.84,0000.35
2023-12-02 19:32:00,SystemResetWarning,0822.4,5.00,000.00,018.8,017.9,000.0,027.2,020.0,9.1,0000.0,0000.47,0000.83,0000.35
2023-12-02 19:33:00,SystemResetWarning,0822.5,5.00,000.00,018.8,018.0,000.0,027.2,020.0,9.4,0000.0,0000.50,0000.91,0000.36
2023-12-02 19:34:00,SystemResetWarning,0822.4,5.00,000.00,018.8,018.0,000.0,027.2,020.0,9.5,0000.0,0000.51,0000.91,0000.36
2023-12-02 19:35:00,SystemResetWarning,0822.5,5.00,000.00,018.8,018.0,000.0,027.2,020.0,9.2,0000.0,0000.53,0000.95,0000.36
2023-12-02 19:36:00,SystemResetWarning,0822.4,5.00,000.00,018.8,018.0,000.0,027.2,020.0,9.3,0000.0,0000.55,0001.09,0000.36
2023-12-02 19:37:00,SystemResetWarning,0822.5,5.00,000.00,018.8,018.0,000.0,027.2,020.0,9.4,0000.0,0000.56,0001.13,0000.36
2023-12-02 19:38:00,SystemResetWarning,0822.5,5.00,000.00,018.8,018.0,000.0,027.2,020.0,9.0,0000.0,0000.57,0001.17,0000.36
2023-12-02 19:39:00,SystemResetWarning,0822.5,5.00,000.00,018.8,018.0,000.0,027.2,020.0,8.7,0000.0,0000.59,0001.20,0000.37
2023-12-02 19:40:00,SystemResetWarning,0822.4,5.00,000.00,018.8,018.0,000.0,027.2,020.0,9.3,0000.0,0000.62,0001.23,0000.39
2023-12-02 19:41:00,SystemResetWarning,0822.4,5.00,000.00,018.8,018.0,000.0,027.2,020.0,9.0,0000.0,0000.68,0001.35,0000.40
2023-12-02 19:42:00,SystemResetWarning,0822.4,4.99,000.00,018.8,018.0,000.0,027.2,020.0,8.8,0000.0,0000.67,0001.30,0000.41
2023-12-02 19:43:00,SystemResetWarning,0822.4,5.00,000.00,018.8,018.0,000.0,027.2,020.0,8.6,0000.0,0000.64,0001.22,0000.41
2023-12-02 19:44:00,SystemResetWarning,0822.4,5.00,000.00,018.8,018.0,000.0,027.2,020.0,8.8,0000.0,0000.67,0001.25,0000.41
2023-12-02 19:45:00,SystemResetWarning,0822.5,5.00,000.00,018.8,018.0,000.0,027.2,020.0,8.6,0000.0,0000.69,0001.25,0000.43
2023-12-02 19:46:00,SystemResetWarning,0822.7,5.00,000.00,018.8,018.1,000.0,027.2,020.0,8.5,0000.0,0000.67,0001.19,0000.43
2023-12-02 19:47:00,SystemResetWarning,0822.5,5.00,000.00,018.8,018.1,000.0,027.2,020.0,8.7,0000.0,0000.66,0001.09,0000.44
2023-12-02 19:48:00,SystemResetWarning,0822.6,4.99,000.00,018.8,018.1,000.0,027.2,020.0,8.9,0000.0,0000.66,0001.05,0000.44
2023-12-02 19:49:00,SystemResetWarning,0822.4,5.00,000.00,018.8,018.1,000.0,027.2,020.0,8.6,0000.0,0000.68,0001.14,0000.45
2023-12-02 19:50:00,SystemResetWarning,0822.4,5.00,000.00,018.8,018.1,000.0,027.2,020.0,8.8,0000.0,0000.71,0001.27,0000.46
2023-12-02 19:51:00,SystemResetWarning,0822.4,5.00,000.00,018.8,018.1,000.0,027.2,020.0,8.9,0000.0,0000.70,0001.27,0000.46
2023-12-02 19:52:00,SystemResetWarning,0822.4,5.00,000.00,018.8,018.0,000.0,027.2,020.0,8.8,0000.0,0000.67,0001.22,0000.46
2023-12-02 19:53:00,SystemResetWarning,0822.4,5.00,000.00,018.8,018.0,000.0,027.2,020.0,9.0,0000.0,0000.70,0001.30,0000.46
2023-12-02 19:54:00,SystemResetWarning,0822.5,5.00,000.00,018.8,018.0,000.0,027.2,020.0,9.0,0000.0,0000.69,0001.28,0000.47
2023-12-02 19:55:00,SystemResetWarning,0822.6,5.01,000.00,018.8,018.0,000.0,027.2,020.0,8.9,0000.0,0000.64,0001.16,0000.46
2023-12-02 19:56:00,SystemResetWarning,0822.4,5.00,000.00,018.8,018.0,000.0,027.2,020.0,9.1,0000.0,0000.61,0001.11,0000.45
2023-12-02 19:57:00,SystemResetWarning,0822.4,5.00,000.00,018.8,018.0,000.0,027.2,020.0,9.0,0000.0,0000.65,0001.32,0000.46
2023-12-02 19:58:00,SystemResetWarning,0822.4,5.01,000.00,018.8,018.0,000.0,027.2,020.0,8.4,0000.0,0000.65,0001.34,0000.46
2023-12-02 19:59:00,SystemResetWarning,0822.3,5.00,000.00,018.8,018.0,000.0,027.2,020.0,8.4,0000.0,0000.65,0001.35,0000.47
